Home   Weather   Fort Worth   Past weeks

Flag for USA Past Weather in Fort Worth, Texas, USA — Yesterday and Last 2 Weeks

Now
63 °F

Clear.


Feels Like: 63 °F
Forecast: 50 / 71 °F
Wind: 7 mph from West

Location: Meacham International Airport

Current Time: Feb 24, 2017 at 5:02:15 am

Latest Report: Feb 24, 2017 at 3:53 am


Visibility: 10 mi

Pressure: 29.57 "Hg

Humidity: 52%

Dew Point: 45 °F

Location of Fort WorthLocation

Past Weather in Fort Worth — Graph

°F

Fort Worth Temperature Yesterday

Maximum temperature yesterday: 90 °F (at 1:53 pm)
Minimum temperature yesterday: 55 °F (at 6:53 am)
Average temperature yesterday: 73 °F

High & Low Weather Summary for the Past Weeks

 TemperatureHumidityPressure
High90 °F (Feb 23, 1:53 pm)94% (Feb 19, 8:43 am)30.42 "Hg (Feb 19, 8:43 am)
Low35 °F (Feb 9, 6:53 am)20% (Feb 22, 12:53 pm)29.42 "Hg (Feb 23, 3:53 pm)
Average61 °F60%29.93 "Hg
* Reported Feb 9 3:53 am — Feb 24 3:53 am, Fort Worth, Weather by CustomWeather, © 2017

Note: Actual official high and low records may vary slightly from our data, if they occured in-between our weather recording intervals... More about our weather records

Advertising

Fort Worth Weather History for the Previous 24 Hours

Scroll right to see more
 ConditionsComfort  
Time TempWeatherWind HumidityBarometerVisibility
3:53 am
Fri, Feb 24
63 °FClear.7 mph52%29.57 "Hg10 mi
2:53 am63 °FClear.9 mph63%29.56 "Hg10 mi
1:53 am66 °FClear.6 mph65%29.57 "Hg10 mi
12:53 am69 °FClear.7 mph61%29.55 "Hg10 mi
11:53 pm
Thu, Feb 23
72 °FClear.15 mph55%29.54 "Hg10 mi
10:53 pm74 °FClear.20 mph50%29.52 "Hg10 mi
9:53 pm77 °FClear.20 mph45%29.50 "Hg10 mi
8:53 pm77 °FClear.17 mph40%29.48 "Hg10 mi
7:53 pm78 °FClear.16 mph36%29.46 "Hg10 mi
6:53 pm81 °FClear.15 mph29%29.46 "Hg10 mi
5:53 pm84 °FSunny.24 mph26%29.43 "Hg10 mi
4:53 pm87 °FSunny.22 mph25%29.42 "Hg10 mi
3:53 pm89 °FSunny.16 mph24%29.42 "Hg10 mi
2:53 pm89 °FSunny.17 mph23%29.44 "Hg10 mi
1:53 pm90 °FSunny.18 mph20%29.47 "Hg10 mi
12:53 pm85 °FSunny.16 mph27%29.51 "Hg10 mi
11:53 am83 °FSunny.16 mph26%29.55 "Hg10 mi
10:53 am78 °FSunny.10 mph32%29.59 "Hg10 mi
9:53 am70 °FSunny.7 mph46%29.61 "Hg10 mi
8:53 am62 °FSunny.5 mph60%29.62 "Hg10 mi
7:53 am56 °FSunny.6 mph75%29.62 "Hg10 mi
6:53 am55 °FClear.5 mph72%29.60 "Hg10 mi
5:53 am56 °FClear.6 mph72%29.61 "Hg10 mi
Weather by CustomWeather, © 2017

See weather overviewHow to use our weather pages